• In Belarus
  • List of Countries
  • For 7 days
  • Water Temperature
  • Weather Map
  • Weather Widgets
  • user-avatar
    Login

    Hourly Weather Nashavar

    Today, 17 October, Thursday

    Time Temperature Precipitation Wind Pressure Humidity
    00:00 +25°C° 0 mm 0 mps 731 mmHg 52%
    01:00 +24°C° 0 mm 0 mps 731 mmHg 53%
    02:00 +24°C° 0 mm 0 mps 731 mmHg 54%
    03:00 +23°C° 0 mm 0 mps 731 mmHg 55%
    04:00 +23°C° 0 mm 0 mps 731 mmHg 56%
    05:00 +25°C° 0 mm 1 mps 731 mmHg 59%
    06:00 +25°C° 0 mm 1 mps 731 mmHg 57%
    07:00 +26°C° 0 mm 1 mps 732 mmHg 54%
    08:00 +24°C° 0 mm 0 mps 732 mmHg 52%
    09:00 +28°C° 0 mm 1 mps 732 mmHg 48%
    10:00 +29°C° 0 mm 1 mps 732 mmHg 44%
    11:00 +30°C° 0 mm 1 mps 732 mmHg 40%
    12:00 +31°C° 0 mm 1 mps 731 mmHg 37%
    13:00 +32°C° 0 mm 1 mps 731 mmHg 35%
    14:00 +32°C° 0 mm 2 mps 730 mmHg 32%
    15:00 +32°C° 0 mm 2 mps 730 mmHg 33%
    16:00 +32°C° 0 mm 2 mps 730 mmHg 33%
    17:00 +33°C° 0 mm 3 mps 730 mmHg 33%
    18:00 +31°C° 0 mm 2 mps 730 mmHg 37%
    19:00 +30°C° 0 mm 2 mps 730 mmHg 40%
    20:00 +28°C° 0 mm 1 mps 730 mmHg 44%
    21:00 +27°C° 0.5 mm 2 mps 731 mmHg 47%
    22:00 +27°C° 0.5 mm 2 mps 731 mmHg 51%
    23:00 +26°C° 0.5 mm 3 mps 731 mmHg 54%

    Tomorrow, 18 October, Friday

    Time Temperature Precipitation Wind Pressure Humidity
    00:00 +25°C° 0.9 mm 2 mps 731 mmHg 56%
    01:00 +25°C° 0.9 mm 1 mps 731 mmHg 57%
    02:00 +24°C° 0.9 mm 1 mps 731 mmHg 59%
    03:00 +24°C° 0.2 mm 1 mps 731 mmHg 60%
    04:00 +23°C° 0.2 mm 1 mps 730 mmHg 61%
    05:00 +23°C° 0.2 mm 1 mps 730 mmHg 62%
    06:00 +24°C° 0.2 mm 1 mps 731 mmHg 58%
    07:00 +24°C° 0.2 mm 1 mps 731 mmHg 53%
    08:00 +25°C° 0.2 mm 1 mps 732 mmHg 48%
    09:00 +26°C° 0.3 mm 2 mps 732 mmHg 44%
    10:00 +28°C° 0.3 mm 2 mps 733 mmHg 39%
    11:00 +29°C° 0.3 mm 3 mps 733 mmHg 34%
    12:00 +29°C° 0 mm 2 mps 733 mmHg 32%
    13:00 +29°C° 0 mm 1 mps 732 mmHg 30%
    14:00 +30°C° 0 mm 1 mps 732 mmHg 28%
    15:00 +30°C° 0 mm 1 mps 732 mmHg 30%
    16:00 +29°C° 0 mm 1 mps 731 mmHg 32%
    17:00 +29°C° 0 mm 1 mps 731 mmHg 33%
    18:00 +28°C° 0 mm 1 mps 731 mmHg 35%
    19:00 +27°C° 0 mm 1 mps 731 mmHg 36%
    20:00 +26°C° 0 mm 1 mps 732 mmHg 38%
    21:00 +26°C° 0 mm 1 mps 732 mmHg 38%
    22:00 +26°C° 0 mm 1 mps 732 mmHg 39%
    23:00 +25°C° 0 mm 1 mps 732 mmHg 40%

    Day after tomorrow, 19 October, Saturday

    Time Temperature Precipitation Wind Pressure Humidity
    00:00 +25°C° 0 mm 1 mps 732 mmHg 42%
    01:00 +24°C° 0 mm 1 mps 732 mmHg 44%
    02:00 +24°C° 0 mm 1 mps 732 mmHg 46%
    03:00 +23°C° 0 mm 1 mps 732 mmHg 47%
    04:00 +21°C° 0 mm 0 mps 732 mmHg 48%
    05:00 +21°C° 0 mm 0 mps 732 mmHg 49%
    06:00 +22°C° 0 mm 0 mps 732 mmHg 46%
    07:00 +23°C° 0 mm 0 mps 733 mmHg 43%
    08:00 +24°C° 0 mm 0 mps 733 mmHg 40%
    09:00 +25°C° 0 mm 0 mps 734 mmHg 37%
    10:00 +28°C° 0 mm 1 mps 734 mmHg 34%
    11:00 +30°C° 0 mm 1 mps 734 mmHg 31%
    12:00 +30°C° 0 mm 1 mps 734 mmHg 29%
    13:00 +31°C° 0 mm 1 mps 733 mmHg 28%
    14:00 +32°C° 0 mm 1 mps 733 mmHg 26%
    15:00 +31°C° 0 mm 1 mps 733 mmHg 27%
    16:00 +31°C° 0 mm 1 mps 732 mmHg 28%
    17:00 +31°C° 0 mm 2 mps 732 mmHg 30%
    18:00 +29°C° 0 mm 1 mps 732 mmHg 33%
    19:00 +28°C° 0 mm 1 mps 733 mmHg 37%
    20:00 +27°C° 0 mm 1 mps 733 mmHg 41%
    21:00 +26°C° 0 mm 1 mps 733 mmHg 42%
    22:00 +26°C° 0 mm 1 mps 733 mmHg 43%
    23:00 +25°C° 0 mm 1 mps 733 mmHg 44%

    20 October, Sunday

    Time Temperature Precipitation Wind Pressure Humidity
    00:00 +25°C° 0 mm 1 mps 733 mmHg 45%
    01:00 +25°C° 0 mm 1 mps 732 mmHg 47%
    02:00 +22°C° 0 mm 0 mps 732 mmHg 48%
    03:00 +22°C° 0 mm 0 mps 732 mmHg 49%
    04:00 +21°C° 0 mm 0 mps 732 mmHg 49%
    05:00 +21°C° 0 mm 0 mps 732 mmHg 49%
    06:00 +22°C° 0 mm 0 mps 732 mmHg 46%
    07:00 +23°C° 0 mm 0 mps 733 mmHg 42%
    08:00 +26°C° 0 mm 1 mps 733 mmHg 39%
    09:00 +27°C° 0 mm 1 mps 733 mmHg 36%
    10:00 +28°C° 0 mm 1 mps 733 mmHg 34%
    11:00 +30°C° 0 mm 1 mps 733 mmHg 31%
    12:00 +30°C° 0 mm 1 mps 732 mmHg 29%
    13:00 +31°C° 0 mm 1 mps 732 mmHg 28%
    14:00 +32°C° 0 mm 1 mps 731 mmHg 26%
    15:00 +31°C° 0 mm 1 mps 731 mmHg 28%
    16:00 +31°C° 0 mm 1 mps 731 mmHg 29%
    17:00 +31°C° 0 mm 1 mps 731 mmHg 31%
    18:00 +30°C° 0 mm 1 mps 731 mmHg 33%
    19:00 +29°C° 0 mm 1 mps 731 mmHg 36%
    20:00 +28°C° 0 mm 1 mps 731 mmHg 39%
    21:00 +27°C° 0 mm 1 mps 731 mmHg 41%
    22:00 +26°C° 0 mm 1 mps 731 mmHg 42%
    23:00 +26°C° 0 mm 1 mps 731 mmHg 43%

    21 October, Monday

    Time Temperature Precipitation Wind Pressure Humidity
    00:00 +25°C° 0.1 mm 1 mps 731 mmHg 45%
    01:00 +25°C° 0.1 mm 1 mps 731 mmHg 46%
    02:00 +23°C° 0.1 mm 0 mps 731 mmHg 48%
    03:00 +22°C° 0 mm 0 mps 731 mmHg 48%
    04:00 +22°C° 0 mm 0 mps 731 mmHg 49%
    05:00 +23°C° 0 mm 1 mps 730 mmHg 50%
    06:00 +22°C° 0 mm 0 mps 731 mmHg 47%
    07:00 +23°C° 0 mm 0 mps 731 mmHg 45%
    08:00 +23°C° 0 mm 0 mps 732 mmHg 42%
    09:00 +27°C° 0 mm 1 mps 731 mmHg 39%
    10:00 +28°C° 0 mm 1 mps 731 mmHg 36%
    11:00 +29°C° 0 mm 1 mps 731 mmHg 33%
    12:00 +30°C° 0 mm 1 mps 731 mmHg 31%
    13:00 +31°C° 0 mm 1 mps 730 mmHg 29%
    14:00 +31°C° 0 mm 1 mps 730 mmHg 28%
    15:00 +31°C° 0 mm 1 mps 730 mmHg 29%
    16:00 +31°C° 0 mm 1 mps 729 mmHg 30%
    17:00 +30°C° 0 mm 1 mps 729 mmHg 32%
    18:00 +29°C° 0 mm 1 mps 729 mmHg 35%
    19:00 +28°C° 0 mm 1 mps 729 mmHg 38%
    20:00 +27°C° 0 mm 1 mps 730 mmHg 40%
    21:00 +27°C° 0 mm 1 mps 730 mmHg 42%
    22:00 +26°C° 0 mm 1 mps 730 mmHg 43%
    23:00 +25°C° 0 mm 1 mps 730 mmHg 44%

    22 October, Tuesday

    Time Temperature Precipitation Wind Pressure Humidity
    00:00 +25°C° 0 mm 1 mps 730 mmHg 45%
    01:00 +24°C° 0 mm 1 mps 729 mmHg 46%
    02:00 +22°C° 0 mm 0 mps 729 mmHg 47%
    03:00 +22°C° 0 mm 0 mps 729 mmHg 48%
    04:00 +21°C° 0 mm 0 mps 729 mmHg 48%
    05:00 +21°C° 0 mm 0 mps 729 mmHg 48%
    06:00 +24°C° 0 mm 1 mps 729 mmHg 45%
    07:00 +25°C° 0 mm 1 mps 730 mmHg 42%
    08:00 +26°C° 0 mm 1 mps 730 mmHg 40%
    09:00 +27°C° 0 mm 1 mps 730 mmHg 37%
    10:00 +28°C° 0 mm 1 mps 730 mmHg 34%
    11:00 +30°C° 0 mm 1 mps 730 mmHg 31%
    12:00 +30°C° 0 mm 1 mps 730 mmHg 29%
    13:00 +31°C° 0 mm 1 mps 729 mmHg 27%
    14:00 +32°C° 0 mm 1 mps 729 mmHg 24%
    15:00 +32°C° 0 mm 1 mps 728 mmHg 26%
    16:00 +31°C° 0 mm 1 mps 728 mmHg 28%
    17:00 +31°C° 0 mm 1 mps 728 mmHg 30%
    18:00 +28°C° 0 mm 0 mps 728 mmHg 32%
    19:00 +27°C° 0 mm 0 mps 728 mmHg 34%
    20:00 +26°C° 0 mm 0 mps 728 mmHg 36%
    21:00 +26°C° 0 mm 0 mps 728 mmHg 37%
    22:00 +25°C° 0 mm 0 mps 728 mmHg 38%
    23:00 +27°C° 0 mm 1 mps 728 mmHg 39%
    Show more